Location: Blackwall
(51.5097°N, 0.0016°W)
Time: 23:35:58
(UTC+00:00)

Aureole 1 Rocket - Pass Details

Date: 15 May 2026
Orbit: 372 x 1148 km, 73.9° (Epoch: 11 June)

Event Time Altitude Azimuth Distance (km) Brightness Sun altitude
Rises 22:14:22 0° 334° (NNW) 3,271 8.6 -16.0°
Reaches altitude 10° 22:16:34 10° 334° (NNW) 2,449 7.5 -16.1°
Maximum altitude 22:22:19 88° 248° (WSW) 967 3.9 -16.5°
Enters shadow 22:26:28 25° 159° (SSE) 1,942 4.9 -16.8°
